Mount Sterling, KY

2:52 PM EDT on September 24, 2017 (GMT -0400)
Mount Sterling-Montgomery County

Weather History for KIOB - December, 2013

Change the Weather History Date:

Sunday, December 15, 2013

  Actual Average Record
Temperature  
Mean Temperature 32 °F -  
Max Temperature 33 °F 46 °F 55 °F (2012)
Min Temperature 30 °F 29 °F 30 °F (2013)
Degree Days  
Heating Degree Days 34    
Moisture  
Dew Point 28 °F    
Average Humidity 89    
Maximum Humidity 100    
Minimum Humidity 80    
Precipitation  
Precipitation 0.01 in - - ()
Sea Level Pressure  
Sea Level Pressure 30.05 in    
Wind  
Wind Speed 11 mph (WNW)    
Max Wind Speed 18 mph    
Max Gust Speed 24 mph    
Visibility 10 miles    
Events Snow    
Averages and records for this station are not official NWS values.
T = Trace of Precipitation, MM = Missing Value Source: NWS Daily Summary

Daily Weather History Graph

Daily Weather History Graph

Search for Another Location

Airport or City:

Trip Planner

Search our weather history database for the weather conditions in past years. The results will help you decide how hot, cold, wet, or windy it might be!

Date:

Astronomy

Dec. 15, 2013 Rise Set
Actual Time 7:45 AM EST 5:17 PM EST
Civil Twilight 7:15 AM EST 5:46 PM EST
Nautical Twilight 6:42 AM EST 6:19 PM EST
Astronomical Twilight 6:10 AM EST 6:52 PM EST
Moon 4:19 PM EST (12/15) 6:01 AM EST (12/15)
Length of Visible Light 10h 31m
Length of Day
9h 32m
Waxing Gibbous, 97% of the Moon is Illuminated
Dec 15
Waxing Gibbous
Dec 17
Full
Dec 25
Last Quarter
Jan 1
New
Jan 7
First Quarter

Hourly Weather History & Observations

Time (EST) Temp. Windchill Dew Point Humidity Pressure Visibility Wind Dir Wind Speed Gust Speed Precip Events Conditions
12:15 AM 33.8 °F 25.3 °F 33.8 °F 100% 29.87 in 4.0 mi NW 11.5 mph 19.6 mph N/A   Overcast
12:35 AM 33.8 °F 24.8 °F 33.8 °F 100% 29.88 in 4.0 mi WNW 12.7 mph 19.6 mph N/A   Overcast
12:55 AM 33.8 °F 25.3 °F 33.8 °F 100% 29.88 in 7.0 mi WNW 11.5 mph 20.7 mph N/A   Overcast
1:15 AM 33.8 °F 25.3 °F 32.0 °F 93% 29.88 in 10.0 mi WNW 11.5 mph 21.9 mph N/A   Overcast
1:35 AM 33.8 °F 24.3 °F 32.0 °F 93% 29.89 in 10.0 mi WNW 13.8 mph 18.4 mph N/A   Overcast
1:55 AM 33.8 °F 25.3 °F 32.0 °F 93% 29.90 in 5.0 mi NW 11.5 mph 18.4 mph N/A   Light Drizzle
2:15 AM 32.0 °F 22.1 °F 32.0 °F 100% 29.91 in 5.0 mi WNW 13.8 mph 17.3 mph N/A Snow Snow
2:35 AM 32.0 °F 22.5 °F 32.0 °F 100% 29.92 in 7.0 mi NW 12.7 mph 21.9 mph N/A   Overcast
2:55 AM 32.0 °F 21.6 °F 32.0 °F 100% 29.93 in 7.0 mi NW 15.0 mph 20.7 mph N/A   Overcast
3:15 AM 32.0 °F 22.5 °F 32.0 °F 100% 29.93 in 10.0 mi NW 12.7 mph 20.7 mph N/A   Overcast
3:35 AM 32.0 °F 22.5 °F 32.0 °F 100% 29.94 in 10.0 mi NW 12.7 mph 16.1 mph N/A   Overcast
3:55 AM 32.0 °F 22.5 °F 32.0 °F 100% 29.95 in 10.0 mi NW 12.7 mph 16.1 mph N/A   Overcast
4:15 AM 32.0 °F 24.8 °F 30.2 °F 93% 29.95 in 10.0 mi NW 8.1 mph 18.4 mph N/A   Overcast
4:35 AM 32.0 °F 24.8 °F 30.2 °F 93% 29.96 in 10.0 mi NW 8.1 mph - N/A   Overcast
4:55 AM 32.0 °F 24.8 °F 30.2 °F 93% 29.97 in 10.0 mi NW 8.1 mph 21.9 mph N/A   Overcast
5:15 AM 32.0 °F 23.6 °F 30.2 °F 93% 29.98 in 10.0 mi NW 10.4 mph - N/A   Overcast
5:35 AM 32.0 °F 23.0 °F 30.2 °F 93% 29.98 in 10.0 mi NNW 11.5 mph - N/A   Overcast
5:55 AM 32.0 °F 24.8 °F 30.2 °F 93% 29.99 in 10.0 mi NW 8.1 mph 16.1 mph N/A   Overcast
6:15 AM 32.0 °F 24.2 °F 28.4 °F 87% 30.00 in 10.0 mi NNW 9.2 mph - N/A   Overcast
6:35 AM 32.0 °F 23.0 °F 28.4 °F 87% 30.00 in 10.0 mi NNW 11.5 mph 16.1 mph N/A   Overcast
6:55 AM 32.0 °F 24.8 °F 28.4 °F 87% 30.01 in 10.0 mi NNW 8.1 mph - 0.01 in   Overcast
7:15 AM 32.0 °F 24.8 °F 28.4 °F 87% 30.01 in 10.0 mi NW 8.1 mph - N/A   Overcast
7:35 AM 32.0 °F 25.6 °F 28.4 °F 87% 30.02 in 10.0 mi NW 6.9 mph - N/A   Overcast
7:55 AM 32.0 °F 26.4 °F 28.4 °F 87% 30.03 in 10.0 mi NW 5.8 mph - N/A   Overcast
8:15 AM 32.0 °F 23.6 °F 28.4 °F 87% 30.04 in 10.0 mi NW 10.4 mph - N/A   Overcast
8:35 AM 32.0 °F 26.4 °F 28.4 °F 87% 30.06 in 10.0 mi WNW 5.8 mph - N/A   Overcast
8:55 AM 32.0 °F 23.6 °F 28.4 °F 87% 30.06 in 10.0 mi WNW 10.4 mph - N/A   Overcast
9:15 AM 32.0 °F 25.6 °F 28.4 °F 87% 30.06 in 10.0 mi WNW 6.9 mph - N/A   Overcast
9:35 AM 32.0 °F 24.2 °F 28.4 °F 87% 30.07 in 7.0 mi West 9.2 mph - N/A   Overcast
9:55 AM 32.0 °F 24.2 °F 28.4 °F 87% 30.08 in 10.0 mi WNW 9.2 mph 18.4 mph N/A   Overcast
10:15 AM 32.0 °F 22.5 °F 28.4 °F 87% 30.08 in 10.0 mi WNW 12.7 mph 18.4 mph N/A   Overcast
10:35 AM 30.2 °F 21.9 °F 26.6 °F 86% 30.09 in 10.0 mi WNW 9.2 mph 23.0 mph N/A   Overcast
10:55 AM 30.2 °F 20.8 °F 26.6 °F 86% 30.09 in 10.0 mi WNW 11.5 mph 19.6 mph N/A   Overcast
11:15 AM 30.2 °F 21.9 °F 26.6 °F 86% 30.09 in 10.0 mi WNW 9.2 mph - N/A   Overcast
11:35 AM 30.2 °F 22.6 °F 28.4 °F 93% 30.09 in 10.0 mi West 8.1 mph - N/A   Overcast
11:55 AM 30.2 °F 20.2 °F 28.4 °F 93% 30.08 in 10.0 mi West 12.7 mph - N/A   Overcast
12:15 PM 30.2 °F 20.2 °F 26.6 °F 86% 30.07 in 10.0 mi West 12.7 mph 19.6 mph N/A   Overcast
12:35 PM 30.2 °F 18.1 °F 26.6 °F 86% 30.07 in 10.0 mi WNW 18.4 mph 24.2 mph N/A   Overcast
12:55 PM 30.2 °F 18.9 °F 24.8 °F 80% 30.07 in 10.0 mi WNW 16.1 mph 21.9 mph N/A   Overcast
1:15 PM 30.2 °F 22.6 °F 24.8 °F 80% 30.07 in 10.0 mi WNW 8.1 mph 21.9 mph N/A   Overcast
1:35 PM 30.2 °F 21.9 °F 26.6 °F 86% 30.06 in 10.0 mi West 9.2 mph 13.8 mph N/A   Overcast
1:55 PM 30.2 °F 20.8 °F 26.6 °F 86% 30.05 in 10.0 mi West 11.5 mph 17.3 mph N/A   Overcast
2:15 PM 30.2 °F 18.1 °F 26.6 °F 86% 30.05 in 10.0 mi West 18.4 mph 21.9 mph N/A   Overcast
2:35 PM 30.2 °F 20.2 °F 26.6 °F 86% 30.06 in 10.0 mi West 12.7 mph 20.7 mph N/A   Overcast
2:55 PM 30.2 °F 20.8 °F 26.6 °F 86% 30.06 in 10.0 mi West 11.5 mph - N/A   Overcast
3:15 PM 30.2 °F 20.2 °F 26.6 °F 86% 30.08 in 10.0 mi WNW 12.7 mph 21.9 mph N/A   Overcast
3:35 PM 30.2 °F 22.6 °F 26.6 °F 86% 30.08 in 10.0 mi West 8.1 mph 18.4 mph N/A   Overcast
3:55 PM 30.2 °F 20.2 °F 26.6 °F 86% 30.09 in 10.0 mi West 12.7 mph 20.7 mph N/A   Overcast
4:15 PM 30.2 °F 20.2 °F 26.6 °F 86% 30.10 in 10.0 mi West 12.7 mph 19.6 mph N/A   Overcast
4:35 PM 30.2 °F 20.2 °F 26.6 °F 86% 30.12 in 10.0 mi West 12.7 mph 20.7 mph N/A   Overcast
4:55 PM 30.2 °F 20.8 °F 26.6 °F 86% 30.12 in 10.0 mi West 11.5 mph 19.6 mph N/A   Overcast
5:15 PM 30.2 °F 21.3 °F 26.6 °F 86% 30.12 in 10.0 mi West 10.4 mph 17.3 mph N/A   Overcast
5:35 PM 30.2 °F 19.3 °F 26.6 °F 86% 30.13 in 10.0 mi West 15.0 mph 19.6 mph N/A   Overcast
5:55 PM 30.2 °F 21.3 °F 26.6 °F 86% 30.12 in 10.0 mi West 10.4 mph 20.7 mph N/A   Overcast
6:15 PM 30.2 °F 21.3 °F 26.6 °F 86% 30.12 in 10.0 mi West 10.4 mph 16.1 mph N/A   Overcast
6:35 PM 30.2 °F 21.3 °F 26.6 °F 86% 30.12 in 10.0 mi West 10.4 mph 23.0 mph N/A   Overcast
6:55 PM 30.2 °F 20.2 °F 26.6 °F 86% 30.11 in 10.0 mi West 12.7 mph 17.3 mph N/A   Overcast
7:15 PM 30.2 °F 21.3 °F 26.6 °F 86% 30.12 in 10.0 mi West 10.4 mph 17.3 mph N/A   Overcast
7:35 PM 30.2 °F 21.9 °F 26.6 °F 86% 30.15 in 10.0 mi West 9.2 mph - N/A   Overcast
7:55 PM 30.2 °F 21.3 °F 26.6 °F 86% 30.13 in 10.0 mi West 10.4 mph 17.3 mph N/A   Overcast
8:15 PM 30.2 °F 21.3 °F 26.6 °F 86% 30.13 in 10.0 mi West 10.4 mph 16.1 mph N/A   Overcast
8:35 PM 30.2 °F 20.8 °F 26.6 °F 86% 30.14 in 10.0 mi West 11.5 mph 17.3 mph N/A   Overcast
8:55 PM 30.2 °F 21.3 °F 26.6 °F 86% 30.14 in 10.0 mi West 10.4 mph - N/A   Overcast
9:15 PM 30.2 °F 21.3 °F 26.6 °F 86% 30.14 in 10.0 mi West 10.4 mph - N/A   Overcast
9:35 PM 30.2 °F 22.6 °F 26.6 °F 86% 30.14 in 10.0 mi West 8.1 mph - N/A   Overcast
9:55 PM 30.2 °F 21.9 °F 26.6 °F 86% 30.14 in 10.0 mi West 9.2 mph - N/A   Overcast
10:15 PM 30.2 °F 21.9 °F 26.6 °F 86% 30.14 in 10.0 mi West 9.2 mph - N/A   Overcast
10:35 PM 30.2 °F 24.3 °F 26.6 °F 86% 30.15 in 10.0 mi West 5.8 mph 9.2 mph N/A   Overcast
10:55 PM 30.2 °F 22.6 °F 26.6 °F 86% 30.15 in 10.0 mi West 8.1 mph - N/A   Overcast
11:15 PM 30.2 °F 23.4 °F 26.6 °F 86% 30.15 in 10.0 mi WSW 6.9 mph - N/A   Overcast
11:35 PM 30.2 °F 23.4 °F 26.6 °F 86% 30.15 in 10.0 mi West 6.9 mph - N/A   Overcast
11:55 PM 30.2 °F 23.4 °F 26.6 °F 86% 30.14 in 10.0 mi West 6.9 mph - N/A   Overcast